Time,TemperatureF,DewpointF,PressureIn,WindDirection,WindDirectionDegrees,WindSpeedMPH,WindSpeedGustMPH,Humidity,HourlyPrecipIn,Conditions,Clouds,dailyrainin,SoftwareType,DateUTC
2017-02-19 00:09:00,51.9,37.2,29.82,ENE,70,0.0,6.0,57,0.00,,,0.00,Weather View 32 v70,2017-02-19 05:09:00,
2017-02-19 00:14:00,52.0,37.4,29.82,SSW,203,2.0,6.0,57,0.00,,,0.00,Weather View 32 v70,2017-02-19 05:14:00,
2017-02-19 00:19:00,52.0,38.1,29.82,SE,127,0.0,6.0,59,0.00,,,0.00,Weather View 32 v70,2017-02-19 05:19:00,
2017-02-19 00:29:00,51.5,39.0,29.83,South,174,3.0,7.0,62,0.00,,,0.00,Weather View 32 v70,2017-02-19 05:29:00,
2017-02-19 00:34:00,51.1,39.0,29.83,ESE,105,0.0,7.0,63,0.00,,,0.00,Weather View 32 v70,2017-02-19 05:34:00,
2017-02-19 00:39:00,50.9,39.2,29.83,SE,129,4.0,7.0,64,0.00,,,0.00,Weather View 32 v70,2017-02-19 05:39:00,
2017-02-19 00:49:00,50.8,39.7,29.83,WSW,238,5.0,7.0,66,0.00,,,0.00,Weather View 32 v70,2017-02-19 05:49:00,
2017-02-19 00:59:00,50.6,39.3,29.83,SE,134,3.0,7.0,65,0.00,,,0.00,Weather View 32 v70,2017-02-19 05:59:00,
2017-02-19 01:04:00,50.8,39.5,29.83,ESE,113,1.0,7.0,65,0.00,,,0.00,Weather View 32 v70,2017-02-19 06:04:00,
2017-02-19 01:14:00,50.9,40.0,29.83,SW,228,1.0,7.0,66,0.00,,,0.00,Weather View 32 v70,2017-02-19 06:14:00,
2017-02-19 01:19:00,50.8,40.3,29.83,SW,218,2.0,7.0,67,0.00,,,0.00,Weather View 32 v70,2017-02-19 06:19:00,
2017-02-19 01:29:00,50.5,40.7,29.84,South,184,6.0,7.0,69,0.00,,,0.00,Weather View 32 v70,2017-02-19 06:29:00,
2017-02-19 01:34:00,50.3,41.0,29.84,SSE,159,6.0,7.0,70,0.00,,,0.00,Weather View 32 v70,2017-02-19 06:34:00,
2017-02-19 01:39:00,50.1,41.2,29.84,South,177,5.0,7.0,71,0.00,,,0.00,Weather View 32 v70,2017-02-19 06:39:00,
2017-02-19 01:49:00,49.3,40.5,29.84,South,188,3.0,7.0,72,0.00,,,0.00,Weather View 32 v70,2017-02-19 06:49:00,
2017-02-19 01:54:00,49.3,41.0,29.84,SSW,201,2.0,7.0,73,0.00,,,0.00,Weather View 32 v70,2017-02-19 06:54:00,
2017-02-19 01:59:00,49.2,40.8,29.84,SSW,200,3.0,7.0,73,0.00,,,0.00,Weather View 32 v70,2017-02-19 06:59:00,
2017-02-19 02:09:00,49.1,41.4,29.84,SW,221,0.0,7.0,75,0.00,,,0.00,Weather View 32 v70,2017-02-19 07:09:00,
2017-02-19 02:14:00,49.0,41.4,29.84,SW,221,0.0,7.0,75,0.00,,,0.00,Weather View 32 v70,2017-02-19 07:14:00,
2017-02-19 02:24:00,48.6,41.3,29.84,North,357,1.0,7.0,76,0.00,,,0.00,Weather View 32 v70,2017-02-19 07:24:00,
2017-02-19 02:29:00,48.6,41.7,29.84,NNW,347,1.0,7.0,77,0.00,,,0.00,Weather View 32 v70,2017-02-19 07:29:00,
2017-02-19 02:39:00,48.4,41.7,29.84,WNW,288,2.0,7.0,78,0.00,,,0.00,Weather View 32 v70,2017-02-19 07:39:00,
2017-02-19 02:44:00,48.5,41.8,29.84,NNW,330,2.0,7.0,78,0.00,,,0.00,Weather View 32 v70,2017-02-19 07:44:00,
2017-02-19 02:54:00,48.6,42.1,29.85,NNE,14,3.0,4.0,78,0.00,,,0.00,Weather View 32 v70,2017-02-19 07:54:00,
2017-02-19 02:59:00,48.8,42.3,29.85,NNE,21,5.0,5.0,78,0.00,,,0.00,Weather View 32 v70,2017-02-19 07:59:00,
2017-02-19 03:09:00,48.8,42.6,29.85,NNE,15,0.0,5.0,79,0.00,,,0.00,Weather View 32 v70,2017-02-19 08:09:00,
2017-02-19 03:14:00,48.7,42.7,29.85,North,11,1.0,5.0,80,0.00,,,0.00,Weather View 32 v70,2017-02-19 08:14:00,
2017-02-19 03:19:00,48.6,42.7,29.85,WNW,284,3.0,5.0,80,0.00,,,0.00,Weather View 32 v70,2017-02-19 08:19:00,
2017-02-19 03:29:00,48.8,43.3,29.84,North,3,3.0,6.0,81,0.00,,,0.00,Weather View 32 v70,2017-02-19 08:29:00,
2017-02-19 03:34:00,49.0,43.6,29.85,NNW,342,1.0,6.0,82,0.00,,,0.00,Weather View 32 v70,2017-02-19 08:34:00,
2017-02-19 03:39:00,49.1,43.7,29.85,NNW,347,1.0,6.0,82,0.00,,,0.00,Weather View 32 v70,2017-02-19 08:39:00,
2017-02-19 03:49:00,49.2,44.0,29.85,NNE,13,3.0,6.0,82,0.00,,,0.00,Weather View 32 v70,2017-02-19 08:49:00,
2017-02-19 03:54:00,49.1,43.9,29.85,NNW,340,2.0,6.0,82,0.00,,,0.00,Weather View 32 v70,2017-02-19 08:54:00,
2017-02-19 04:04:00,48.9,43.9,29.85,NW,314,0.0,6.0,83,0.00,,,0.00,Weather View 32 v70,2017-02-19 09:04:00,
2017-02-19 04:09:00,49.0,44.0,29.85,NE,35,5.0,6.0,83,0.00,,,0.00,Weather View 32 v70,2017-02-19 09:09:00,
2017-02-19 04:29:00,49.4,44.4,29.86,NW,325,2.0,6.0,83,0.00,,,0.00,Weather View 32 v70,2017-02-19 09:29:00,
2017-02-19 04:34:00,49.5,44.4,29.86,NNE,13,3.0,6.0,83,0.00,,,0.00,Weather View 32 v70,2017-02-19 09:34:00,
2017-02-19 04:39:00,49.4,44.4,29.86,North,7,1.0,6.0,83,0.00,,,0.00,Weather View 32 v70,2017-02-19 09:39:00,
2017-02-19 04:44:00,49.4,44.3,29.86,North,350,2.0,6.0,83,0.00,,,0.00,Weather View 32 v70,2017-02-19 09:44:00,
2017-02-19 04:54:00,49.2,44.2,29.86,North,352,0.0,6.0,83,0.00,,,0.00,Weather View 32 v70,2017-02-19 09:54:00,
2017-02-19 04:59:00,49.1,44.2,29.86,North,352,0.0,6.0,83,0.00,,,0.00,Weather View 32 v70,2017-02-19 09:59:00,
2017-02-19 05:09:00,49.0,44.2,29.87,SW,225,1.0,6.0,84,0.00,,,0.00,Weather View 32 v70,2017-02-19 10:09:00,
2017-02-19 05:14:00,48.8,44.2,29.87,SW,225,0.0,3.0,84,0.00,,,0.00,Weather View 32 v70,2017-02-19 10:14:00,
2017-02-19 05:19:00,48.7,44.1,29.88,SW,229,2.0,3.0,84,0.00,,,0.00,Weather View 32 v70,2017-02-19 10:19:00,
2017-02-19 05:29:00,48.3,43.7,29.88,SW,219,0.0,3.0,84,0.00,,,0.00,Weather View 32 v70,2017-02-19 10:29:00,
2017-02-19 05:34:00,48.2,43.7,29.88,ESE,105,0.0,5.0,85,0.00,,,0.00,Weather View 32 v70,2017-02-19 10:34:00,
2017-02-19 05:39:00,47.7,43.5,29.88,ESE,122,3.0,5.0,85,0.00,,,0.00,Weather View 32 v70,2017-02-19 10:39:00,
2017-02-19 05:49:00,47.3,43.5,29.88,WNW,287,1.0,5.0,87,0.00,,,0.00,Weather View 32 v70,2017-02-19 10:49:00,
2017-02-19 05:54:00,47.2,43.5,29.87,SSE,159,3.0,5.0,87,0.00,,,0.00,Weather View 32 v70,2017-02-19 10:54:00,
2017-02-19 06:04:00,46.8,43.0,29.88,SSW,204,2.0,5.0,87,0.00,,,0.00,Weather View 32 v70,2017-02-19 11:04:00,
2017-02-19 06:09:00,46.5,42.9,29.88,WSW,238,2.0,5.0,87,0.00,,,0.00,Weather View 32 v70,2017-02-19 11:09:00,
2017-02-19 06:19:00,46.1,42.5,29.88,WNW,294,0.0,5.0,87,0.00,,,0.00,Weather View 32 v70,2017-02-19 11:19:00,
2017-02-19 06:24:00,45.9,42.2,29.88,WNW,294,0.0,5.0,87,0.00,,,0.00,Weather View 32 v70,2017-02-19 11:24:00,
2017-02-19 06:34:00,45.3,41.8,29.89,West,280,1.0,5.0,88,0.00,,,0.00,Weather View 32 v70,2017-02-19 11:34:00,
2017-02-19 06:39:00,45.2,41.8,29.89,SSW,195,0.0,5.0,88,0.00,,,0.00,Weather View 32 v70,2017-02-19 11:39:00,
2017-02-19 06:49:00,44.8,41.3,29.90,East,93,0.0,5.0,88,0.00,,,0.00,Weather View 32 v70,2017-02-19 11:49:00,
2017-02-19 06:54:00,44.5,41.2,29.90,SW,231,1.0,5.0,88,0.00,,,0.00,Weather View 32 v70,2017-02-19 11:54:00,
2017-02-19 07:09:00,43.7,40.6,29.91,SSW,210,0.0,5.0,89,0.00,,,0.00,Weather View 32 v70,2017-02-19 12:09:00,
2017-02-19 07:14:00,43.5,40.4,29.91,SSW,193,0.0,4.0,89,0.00,,,0.00,Weather View 32 v70,2017-02-19 12:14:00,
2017-02-19 07:19:00,43.4,40.6,29.92,SSE,167,4.0,4.0,90,0.00,,,0.00,Weather View 32 v70,2017-02-19 12:19:00,
2017-02-19 07:29:00,43.1,40.3,29.92,South,179,0.0,4.0,90,0.00,,,0.00,Weather View 32 v70,2017-02-19 12:29:00,
2017-02-19 07:35:00,43.0,40.4,29.92,South,179,0.0,4.0,90,0.00,,,0.00,Weather View 32 v70,2017-02-19 12:35:00,
2017-02-19 07:44:00,43.3,40.8,29.93,SSW,204,4.0,5.0,91,0.00,,,0.00,Weather View 32 v70,2017-02-19 12:44:00,
2017-02-19 07:49:00,43.3,40.8,29.93,SW,218,3.0,5.0,91,0.00,,,0.00,Weather View 32 v70,2017-02-19 12:49:00,
2017-02-19 07:54:00,43.4,41.0,29.93,SW,214,3.0,5.0,91,0.00,,,0.00,Weather View 32 v70,2017-02-19 12:54:00,
2017-02-19 07:59:00,43.5,41.2,29.93,SSE,158,3.0,5.0,92,0.00,,,0.00,Weather View 32 v70,2017-02-19 12:59:00,
2017-02-19 08:09:00,43.6,41.1,29.94,SSW,201,5.0,6.0,91,0.00,,,0.00,Weather View 32 v70,2017-02-19 13:09:00,
2017-02-19 08:14:00,43.7,41.3,29.93,SSE,155,3.0,6.0,91,0.00,,,0.00,Weather View 32 v70,2017-02-19 13:14:00,
2017-02-19 08:19:00,43.8,41.5,29.94,SSE,165,3.0,6.0,92,0.00,,,0.00,Weather View 32 v70,2017-02-19 13:19:00,
2017-02-19 08:29:00,44.4,42.1,29.94,South,186,5.0,6.0,92,0.00,,,0.00,Weather View 32 v70,2017-02-19 13:29:00,
2017-02-19 08:34:00,45.0,42.8,29.95,South,173,5.0,6.0,92,0.00,,,0.00,Weather View 32 v70,2017-02-19 13:34:00,
2017-02-19 08:44:00,46.4,44.0,29.95,SSE,159,3.0,6.0,91,0.00,,,0.00,Weather View 32 v70,2017-02-19 13:44:00,
2017-02-19 08:54:00,47.7,45.0,29.96,SSW,210,3.0,6.0,90,0.00,,,0.00,Weather View 32 v70,2017-02-19 13:54:00,
2017-02-19 08:59:00,48.4,45.5,29.97,SSW,193,3.0,6.0,90,0.00,,,0.00,Weather View 32 v70,2017-02-19 13:59:00,
2017-02-19 09:09:00,50.1,46.9,29.97,SW,215,3.0,6.0,89,0.00,,,0.00,Weather View 32 v70,2017-02-19 14:09:00,
2017-02-19 09:14:00,50.6,47.0,29.97,SSE,160,4.0,6.0,87,0.00,,,0.00,Weather View 32 v70,2017-02-19 14:14:00,
2017-02-19 09:19:00,51.5,47.4,29.97,SSW,201,5.0,6.0,86,0.00,,,0.00,Weather View 32 v70,2017-02-19 14:19:00,
2017-02-19 09:29:00,52.9,46.6,29.97,SW,231,5.0,10.0,79,0.00,,,0.00,Weather View 32 v70,2017-02-19 14:29:00,
2017-02-19 09:34:00,53.6,46.4,29.97,SSW,208,7.0,10.0,77,0.00,,,0.00,Weather View 32 v70,2017-02-19 14:34:00,
2017-02-19 09:39:00,54.1,46.5,29.97,SSW,210,6.0,10.0,76,0.00,,,0.00,Weather View 32 v70,2017-02-19 14:39:00,
2017-02-19 09:49:00,54.7,46.4,29.97,South,169,3.0,10.0,74,0.00,,,0.00,Weather View 32 v70,2017-02-19 14:49:00,
2017-02-19 09:54:00,55.0,46.4,29.96,SSW,198,7.0,11.0,73,0.00,,,0.00,Weather View 32 v70,2017-02-19 14:54:00,
2017-02-19 10:04:00,55.4,45.8,29.97,WSW,252,3.0,11.0,70,0.00,,,0.00,Weather View 32 v70,2017-02-19 15:04:00,
2017-02-19 10:09:00,55.5,46.0,29.96,SW,214,9.0,12.0,70,0.00,,,0.00,Weather View 32 v70,2017-02-19 15:09:00,
2017-02-19 10:14:00,55.7,45.5,29.96,SW,229,9.0,12.0,69,0.00,,,0.00,Weather View 32 v70,2017-02-19 15:14:00,
2017-02-19 10:24:00,56.3,45.7,29.96,SSW,208,7.0,12.0,68,0.00,,,0.00,Weather View 32 v70,2017-02-19 15:24:00,
2017-02-19 10:29:00,56.6,46.0,29.96,SW,215,9.0,12.0,68,0.00,,,0.00,Weather View 32 v70,2017-02-19 15:29:00,